TimeEST,TemperatureF,Dew PointF,Humidity,Sea Level PressureIn,VisibilityMPH,Wind Direction,Wind SpeedMPH,Gust SpeedMPH,PrecipitationIn,Events,Conditions,WindDirDegrees,DateUTC
12:54 AM,28.0,21.0,75,30.01,10.0,Calm,Calm,-,N/A,,Clear,0,2012-11-26 05:54:00
1:54 AM,24.1,19.0,81,30.02,10.0,Calm,Calm,-,N/A,,Clear,0,2012-11-26 06:54:00
2:54 AM,27.0,21.0,78,30.04,10.0,Calm,Calm,-,N/A,,Clear,0,2012-11-26 07:54:00
3:54 AM,28.9,23.0,78,30.05,10.0,WSW,3.5,-,N/A,,Clear,250,2012-11-26 08:54:00
4:54 AM,28.9,24.1,82,30.06,10.0,SW,3.5,-,N/A,,Clear,230,2012-11-26 09:54:00
5:54 AM,32.0,25.0,75,30.08,10.0,WSW,3.5,-,N/A,,Clear,250,2012-11-26 10:54:00
6:54 AM,34.0,24.1,67,30.11,10.0,SW,3.5,-,N/A,,Clear,220,2012-11-26 11:54:00
7:54 AM,34.0,25.0,70,30.13,10.0,Calm,Calm,-,N/A,,Clear,0,2012-11-26 12:54:00
8:54 AM,41.0,26.1,55,30.16,10.0,West,3.5,-,N/A,,Clear,270,2012-11-26 13:54:00
9:54 AM,46.0,24.1,42,30.17,10.0,NW,11.5,-,N/A,,Clear,310,2012-11-26 14:54:00
10:54 AM,48.9,24.1,38,30.17,10.0,NW,12.7,-,N/A,,Clear,310,2012-11-26 15:54:00
11:54 AM,48.9,23.0,36,30.16,10.0,WNW,12.7,-,N/A,,Clear,300,2012-11-26 16:54:00
12:54 PM,50.0,24.1,36,30.15,10.0,West,15.0,18.4,N/A,,Clear,280,2012-11-26 17:54:00
1:54 PM,51.1,23.0,33,30.15,10.0,NW,9.2,-,N/A,,Clear,310,2012-11-26 18:54:00
2:54 PM,50.0,21.0,32,30.16,10.0,WSW,6.9,-,N/A,,Clear,250,2012-11-26 19:54:00
3:54 PM,48.0,21.0,34,30.19,10.0,WNW,8.1,-,N/A,,Clear,300,2012-11-26 20:54:00
4:54 PM,45.0,21.0,39,30.20,10.0,Calm,Calm,-,N/A,,Clear,0,2012-11-26 21:54:00
5:54 PM,37.9,21.9,53,30.22,10.0,Calm,Calm,-,N/A,,Clear,0,2012-11-26 22:54:00
6:54 PM,35.1,23.0,61,30.24,10.0,Calm,Calm,-,N/A,,Clear,0,2012-11-26 23:54:00
7:54 PM,30.9,21.0,67,30.25,10.0,Calm,Calm,-,N/A,,Clear,0,2012-11-27 00:54:00
8:54 PM,28.9,21.0,72,30.25,10.0,Calm,Calm,-,N/A,,Clear,0,2012-11-27 01:54:00
9:54 PM,30.0,21.0,69,30.26,10.0,Calm,Calm,-,N/A,,Clear,0,2012-11-27 02:54:00
10:54 PM,30.0,21.9,72,30.27,10.0,SSW,3.5,-,N/A,,Clear,210,2012-11-27 03:54:00
11:54 PM,27.0,21.0,78,30.27,10.0,NNE,3.5,-,N/A,,Clear,20,2012-11-27 04:54:00